Regional Weather Roundup
Issued by NWS

Home | Current Version | Previous Version | Text Only | Print | Product List | Glossary Off
Versions: 1 2 3 4 5 6 7 8 9 10 11 12 13 14 15 16 17 18 19 20 21 22 23 24 25 26 27

000
ASUS45 KBOU 161007
RWRCO

WEATHER ROUNDUP FOR COLORADO
NATIONAL WEATHER SERVICE DENVER/BOULDER CO
400 AM MDT WED AUG 16 2017

NOTE: "FAIR" INDICATES FEW OR NO CLOUDS BELOW 12000 FEET WITH NO
SIGNIFICANT WEATHER AND/OR OBSTRUCTIONS TO VISIBILITY.

COZ001>005-013-030-031-161100-
...NORTHWEST COLORADO...

CITY           SKY/WX    TMP DP  RH WIND       PRES   REMARKS
CRAIG          FAIR      44  42  93 CALM      30.16S
HAYDEN         FAIR      48  46  93 E7        30.19S
MEEKER         FAIR      49  46  90 NE5       30.16R
RABBIT EARS PA FAIR      37  36  93 W6        30.35S
STEAMBOAT SPGS FAIR      45  44  97 CALM      30.18S
WALDEN         MOCLDY    43  37  81 SE5       30.24S
$$

COZ006>008-011-161100-
...WEST CENTRAL VALLEYS...

CITY           SKY/WX    TMP DP  RH WIND       PRES   REMARKS
GRAND JUNCTION FAIR      62  46  55 CALM      30.04R
MONTROSE       FAIR      57  37  47 SE8       30.12S
EAGLE          CLOUDY    53  47  79 NE3       30.19S
RIFLE          FAIR      58  45  62 E5        30.11R
DELTA          NOT AVBL
NUCLA          FAIR      54  32  43 SE8       30.15S
$$

COZ017>023-064>068-161100-
...SOUTHWEST COLORADO...

CITY           SKY/WX    TMP DP  RH WIND       PRES   REMARKS
DURANGO        FAIR      48  34  58 N7        30.16S
CORTEZ         FAIR      46  36  68 NE3       30.12R
PAGOSA SPRINGS FAIR      44  31  58 CALM      30.23R
TELLURIDE      NOT AVBL
WOLF CREEK PAS FAIR      37  27  65 SW6       30.49S
$$

COZ009-010-012-014-032>034-037-058>063-161100-
...CENTRAL COLORADO...

CITY           SKY/WX    TMP DP  RH WIND       PRES   REMARKS
ASPEN          CLOUDY    53  38  56 SW5       30.21S
BUENA VISTA    FAIR      56  32  40 NW7       30.20S
COPPER MTN     SNOW      37  34  87 MISG      30.43S VSB 1/4
BERTHOUD PASS  LGT SNOW  32  27  80 NW26G35   30.41S WCI  18
COTTONWOOD PAS CLOUDY    52  28  40 W7        30.31R
GUNNISON       FAIR      49  37  63 CALM      30.22S
KREMMLING      FAIR      54  46  76 CALM      30.22S
LEADVILLE      CLOUDY    44  34  67 N7        30.32S
MONARCH PASS   FAIR      37  27  65 W16       30.52S
SALIDA         CLOUDY    61  30  30 NW6       30.25R
SUNLIGHT       CLOUDY    43  32  65 NW6       30.41R
WILKERSON PASS FAIR      41  28  60 W9G16     30.39F
$$

COZ069>075-161100-
...SAN LUIS VALLEY/SANGRE DE CRISTO MOUNTAINS...

CITY           SKY/WX    TMP DP  RH WIND       PRES   REMARKS
ALAMOSA        FAIR      47  36  65 W5        30.18S
DEL NORTE      FAIR      51  32  49 SW13      30.22S
LA VETA PASS   NOT AVBL
SAGUACHE       FAIR      50  32  50 N8        30.21S
$$

COZ035-036-038>040-161100-
...NORTHERN COLORADO FRONT RANGE...

CITY           SKY/WX    TMP DP  RH WIND       PRES   REMARKS
DENVER INTL AP MOCLDY    58  52  80 SW8       30.05S
DMNS CITY PARK   N/A     58  53  85 SW5       30.06S
AURORA         MOCLDY    57  53  88 SW6       30.07S
FRONT RANGE AP FAIR      59  54  82 SW6       30.06F
ERIE MUNI ARPT CLOUDY    58  55  89 CALM      30.09S
BOULDER MUN AP LGT RAIN  59  54  82 CALM      30.07S
CENTENNIAL     MOCLDY    58  51  78 W3        30.08S
BROOMFIELD     NOT AVBL
FORT COLLINS   CLOUDY    60  55  83 CALM      30.06R
LONGMONT       RAIN      60  55  83 CALM      30.07S
$$

COZ041-046-047-076>085-087-088-161100-
...PIKES PEAK/PALMER DIVIDE AND SOUTHERN FOOTHILLS...

CITY           SKY/WX    TMP DP  RH WIND       PRES   REMARKS
COLO. SPRINGS  CLOUDY    60  49  66 N5        30.10R
A. F. ACADEMY  FAIR      55  47  75 N9        30.10R
SCHRIEVER AFB  CLOUDY    57  47  69 N16       30.09R
CHEYENNE MTN   CLOUDY    60  42  51 NW3       30.07R
ELLICOTT       FAIR     N/A N/A N/A N8        30.08R
FALCON         CLOUDY    55  46  69 NW12      30.13R
FORT CARSON    FAIR      58  49  72 NW7       30.07R
LIMON          FAIR      54  52  93 NW7       30.05R
MONUMENT HILL  CLOUDY    50  46  87 W6        30.16R
CANON CITY     CLEAR     63  54  72 N5        30.04S
WALSENBURG     PTSUNNY   55  50  82 CALM      30.10R
TRINIDAD       FAIR      57  48  72 SE3       30.10R
$$

COZ042>045-048>051-090-091-161100-
...NORTHEAST COLORADO...

CITY           SKY/WX    TMP DP  RH WIND       PRES   REMARKS
GREELEY ARPT   CLOUDY    59  57  93 N3        30.04F
AKRON          NOT AVBL
BURLINGTON     CLOUDY    61  58  90 N9        29.97F
WRAY           NOT AVBL
YUMA           NOT AVBL
STERLING       FAIR      59  55  88 N10       29.93F
HOLYOKE        FAIR      61  59  94 N8        29.95F
FORT MORGAN    FAIR      58  49  73 N10       30.00S
$$

COZ086-089-092>099-161100-
...SOUTHEAST COLORADO...

CITY           SKY/WX    TMP DP  RH WIND       PRES   REMARKS
PUEBLO         FAIR      64  50  60 E9        30.01R
LA JUNTA       FAIR      62  53  72 W9        29.99R
LAMAR          FAIR      65  54  67 NE10      29.91F
SPRINGFIELD      N/A     60  56  86 N9        29.96R
$$




USA.gov is the U.S. government's official web portal to all federal, state and local government web resources and services.